Starlink 30161

operational
NORAD ID: 57476 Int'l Des: 2023-107 Owner: SPXS Country: US Constellation: starlink
LEOCIRCULAR

关于 Starlink 30161

正在加载描述...

实时位置

正在加载3D地球...

即将过境

高度历史

Altitude vs Time

uPlot chart will show altitude changes over time

两行轨道根数

1 57476U 23107V 25353.54937713 .00000188 00000-0 29041-4 0 9996
2 57476 43.0064 53.9586 0001882 260.1179 99.9451 15.02534283133062
Epoch: Dec 19, 2025 • Age: 9 hours

当前状态

高度 558.3 km
速度 7.58 km/s
星下点 11.75°N, 162.19°E
发射日期 Jul 28, 2023
运行时间 2.3 years
类型 internet

技术详情

分类 Payload
质量 730.00 kg
干质量 700.00 kg
总质量 730.00 kg
长度 0.30 m
直径 4.10 m
跨度 29.00 m
形状 Box + pan
制造商 SPXS
平台类型 Starlink V2M
阶段状态 In Orbit
所有者/国家 SPXS/US

大型星座

Loading constellations...